timestamp,surface_pressure_avg,surface_temp_avg,battery_voltage,lat,long
2022-09-08 00:09:00+00:00,296.3613,17.1,11.53,47.84626,-54.09684
2022-09-08 00:19:01+00:00,287.5164,17.1,11.53,47.84626,-54.09684
2022-09-08 00:29:01+00:00,280.9314,17.06,11.53,47.84626,-54.09684
2022-09-08 00:39:01+00:00,275.3148,16.87,11.53,47.84626,-54.09684
2022-09-08 00:49:01+00:00,266.8464,17.17,11.53,47.84626,-54.09684
2022-09-08 00:59:01+00:00,258.0981,17.2,11.53,47.84626,-54.09684
2022-09-08 01:09:01+00:00,251.9248,17.1,11.53,47.84626,-54.09684
2022-09-08 01:19:00+00:00,246.9197,17.04,11.53,47.84626,-54.09684
2022-09-08 01:29:00+00:00,240.8197,17.19,11.53,47.84626,-54.09684
2022-09-08 01:39:00+00:00,234.7481,17.24,11.53,47.84626,-54.09684
2022-09-08 01:49:00+00:00,229.9631,17.2,11.53,47.84626,-54.09684
2022-09-08 01:59:00+00:00,225.8447,17.2,11.53,47.84626,-54.09684
2022-09-08 02:09:00+00:00,222.2848,17.2,11.53,47.84626,-54.09684
2022-09-08 02:19:00+00:00,217.1482,17.2,11.53,47.84626,-54.09684
2022-09-08 02:29:00+00:00,211.9848,17.2,11.53,47.84626,-54.09684
2022-09-08 02:39:00+00:00,210.2263,17.2,11.53,47.84626,-54.09684
2022-09-08 02:49:00+00:00,209.2715,17.2,11.53,47.84626,-54.09684
2022-09-08 02:59:00+00:00,206.2565,17.2,11.53,47.84626,-54.09684
2022-09-08 03:09:00+00:00,202.4231,17.19,11.53,47.84626,-54.09684
2022-09-08 03:19:00+00:00,200.2298,17.19,11.53,47.84626,-54.09684
2022-09-08 03:29:00+00:00,198.763,17.18,11.53,47.84626,-54.09684
2022-09-08 03:39:00+00:00,197.0548,17.17,11.53,47.84626,-54.09684
2022-09-08 03:49:00+00:00,195.7464,17.17,11.53,47.84626,-54.09684
2022-09-08 03:59:00+00:00,194.1231,17.13,11.53,47.84626,-54.09684
2022-09-08 04:09:00+00:00,192.0481,17.1,11.53,47.84626,-54.09684
2022-09-08 04:19:00+00:00,190.2697,17.08,11.53,47.84626,-54.09684
2022-09-08 04:29:00+00:00,190.9214,17.03,11.53,47.84626,-54.09684
2022-09-08 04:39:00+00:00,192.3531,17.0,11.53,47.84626,-54.09684
2022-09-08 04:49:00+00:00,193.3048,17.0,11.53,47.84626,-54.09684
2022-09-08 04:59:00+00:00,196.0598,16.92,11.53,47.84626,-54.09684
2022-09-08 05:09:00+00:00,199.9714,16.9,11.53,47.84626,-54.09684
2022-09-08 05:19:01+00:00,203.1064,16.9,11.46,47.84626,-54.09684
2022-09-08 05:29:01+00:00,205.8348,16.9,11.46,47.84626,-54.09684
2022-09-08 05:39:01+00:00,210.8614,16.9,11.46,47.84626,-54.09684
2022-09-08 05:49:01+00:00,219.1447,16.9,11.46,47.84626,-54.09684
2022-09-08 05:59:01+00:00,225.4464,16.9,11.46,47.84626,-54.09684
2022-09-08 06:09:01+00:00,229.0814,16.8,11.46,47.84626,-54.09684
2022-09-08 06:19:00+00:00,235.6231,16.75,11.46,47.84626,-54.09684
2022-09-08 06:29:00+00:00,242.5948,16.7,11.46,47.84626,-54.09684
2022-09-08 06:39:00+00:00,247.7381,16.69,11.46,47.84626,-54.09684
2022-09-08 06:49:00+00:00,252.4681,16.4,11.46,47.84626,-54.09684
2022-09-08 06:59:00+00:00,259.1014,16.2,11.46,47.84626,-54.09684
2022-09-08 07:09:00+00:00,265.0847,16.1,11.46,47.84626,-54.09684
2022-09-08 07:19:01+00:00,269.3481,16.0,11.46,47.84626,-54.09684
2022-09-08 07:29:01+00:00,273.1348,15.6,11.46,47.84626,-54.09684
2022-09-08 07:39:01+00:00,278.8981,15.3,11.46,47.84626,-54.09684
2022-09-08 07:49:01+00:00,284.8064,15.2,11.46,47.84626,-54.09684
2022-09-08 07:59:01+00:00,289.8246,15.2,11.46,47.84626,-54.09684
2022-09-08 08:09:01+00:00,293.8698,15.2,11.46,47.84626,-54.09684
2022-09-08 08:19:00+00:00,299.9831,15.2,11.46,47.84626,-54.09684
2022-09-08 08:29:00+00:00,304.6161,15.2,11.46,47.84626,-54.09684
2022-09-08 08:39:00+00:00,305.9214,15.22,11.46,47.84626,-54.09684
2022-09-08 08:49:00+00:00,308.6797,15.24,11.46,47.84626,-54.09684
2022-09-08 08:59:00+00:00,314.3096,15.29,11.46,47.84626,-54.09684
2022-09-08 09:09:00+00:00,318.5397,15.34,11.46,47.84626,-54.09684
2022-09-08 09:19:00+00:00,320.1362,15.49,11.46,47.84626,-54.09684
2022-09-08 09:29:00+00:00,320.558,15.65,11.46,47.84626,-54.09684
2022-09-08 09:39:00+00:00,323.0247,15.6,11.46,47.84626,-54.09684
2022-09-08 09:49:00+00:00,326.4529,15.38,11.46,47.84626,-54.09684
2022-09-08 09:59:00+00:00,330.0013,15.24,11.46,47.84626,-54.09684
2022-09-08 10:09:00+00:00,330.2664,15.2,11.46,47.84626,-54.09684
2022-09-08 10:19:01+00:00,330.1362,15.17,11.53,47.84626,-54.09684
2022-09-08 10:29:01+00:00,330.4346,15.42,11.53,47.84626,-54.09684
2022-09-08 10:39:01+00:00,329.1929,15.57,11.53,47.84626,-54.09684
2022-09-08 10:49:01+00:00,325.1946,15.6,11.53,47.84626,-54.09684
2022-09-08 10:59:01+00:00,322.1746,15.66,11.53,47.84626,-54.09684
2022-09-08 11:09:01+00:00,319.6046,15.79,11.53,47.84626,-54.09684
2022-09-08 11:19:00+00:00,317.0247,15.8,11.53,47.84626,-54.09684
2022-09-08 11:29:00+00:00,312.0563,15.87,11.53,47.84626,-54.09684
2022-09-08 11:39:00+00:00,307.6396,15.61,11.53,47.84626,-54.09684
2022-09-08 11:49:00+00:00,302.4513,15.63,11.53,47.84626,-54.09684
2022-09-08 11:59:00+00:00,294.4097,15.79,11.53,47.84626,-54.09684
2022-09-08 12:09:00+00:00,284.9564,15.79,11.53,47.84626,-54.09684
2022-09-08 12:19:00+00:00,280.3264,15.59,11.77,47.84626,-54.09684
2022-09-08 12:29:00+00:00,276.4597,15.59,11.77,47.84626,-54.09684
2022-09-08 12:39:00+00:00,268.7814,15.81,11.77,47.84626,-54.09684
2022-09-08 12:49:00+00:00,257.6681,15.82,11.77,47.84626,-54.09684
2022-09-08 12:59:00+00:00,249.4497,15.88,11.77,47.84626,-54.09684
2022-09-08 13:09:00+00:00,244.9064,15.9,11.77,47.84626,-54.09684
2022-09-08 13:19:00+00:00,238.6614,15.93,11.86,47.84626,-54.09684
2022-09-08 13:29:00+00:00,230.7881,15.9,11.86,47.84626,-54.09684
2022-09-08 13:39:00+00:00,224.5064,15.84,11.86,47.84626,-54.09684
2022-09-08 13:49:00+00:00,219.5865,15.9,11.86,47.84626,-54.09684
2022-09-08 13:59:00+00:00,211.7231,15.8,11.86,47.84626,-54.09684
2022-09-08 14:09:00+00:00,206.3265,15.7,11.86,47.84626,-54.09684
2022-09-08 14:19:00+00:00,204.4748,15.6,11.93,47.84626,-54.09684
2022-09-08 14:29:00+00:00,198.9364,15.5,11.93,47.84626,-54.09684
2022-09-08 14:39:00+00:00,190.9298,15.49,11.93,47.84626,-54.09684
2022-09-08 14:49:00+00:00,188.0981,15.5,11.93,47.84626,-54.09684
2022-09-08 14:59:00+00:00,188.1481,15.4,11.93,47.84626,-54.09684
2022-09-08 15:09:00+00:00,184.1681,15.39,11.93,47.84626,-54.09684
2022-09-08 15:19:01+00:00,180.4232,15.3,11.86,47.84626,-54.09684
2022-09-08 15:29:01+00:00,181.7915,15.2,11.86,47.84626,-54.09684
2022-09-08 15:39:01+00:00,181.9515,15.2,11.86,47.84626,-54.09684
2022-09-08 15:49:01+00:00,181.5814,15.24,11.86,47.84626,-54.09684
2022-09-08 15:59:01+00:00,181.6664,15.3,11.86,47.84626,-54.09684
2022-09-08 16:09:01+00:00,181.3848,15.2,11.86,47.84626,-54.09684
2022-09-08 16:19:01+00:00,182.8899,15.2,11.77,47.84626,-54.09684
2022-09-08 16:29:01+00:00,185.1964,15.2,11.77,47.84626,-54.09684
2022-09-08 16:39:01+00:00,188.058,15.16,11.77,47.84626,-54.09684
2022-09-08 16:49:01+00:00,191.4631,15.27,11.77,47.84626,-54.09684
2022-09-08 16:59:01+00:00,194.4014,15.49,11.77,47.84626,-54.09684
2022-09-08 17:09:01+00:00,197.2614,15.38,11.77,47.84626,-54.09684
2022-09-08 17:19:01+00:00,201.9998,14.93,11.77,47.84626,-54.09684
2022-09-08 17:29:01+00:00,206.6898,14.5,11.77,47.84626,-54.09684
2022-09-08 17:39:01+00:00,213.6381,14.4,11.77,47.84626,-54.09684
2022-09-08 17:49:01+00:00,220.4764,14.21,11.77,47.84626,-54.09684
2022-09-08 17:59:01+00:00,224.0164,14.29,11.77,47.84626,-54.09684
2022-09-08 18:09:01+00:00,227.9231,14.14,11.77,47.84626,-54.09684
2022-09-08 18:19:00+00:00,234.1281,14.1,11.77,47.84626,-54.09684
2022-09-08 18:29:00+00:00,238.9448,14.05,11.77,47.84626,-54.09684
2022-09-08 18:39:00+00:00,241.1447,14.3,11.77,47.84626,-54.09684
2022-09-08 18:49:00+00:00,245.9314,15.0,11.77,47.84626,-54.09684
2022-09-08 18:59:00+00:00,254.0781,13.79,11.77,47.84626,-54.09684
2022-09-08 19:09:00+00:00,261.3231,13.5,11.77,47.84626,-54.09684
2022-09-08 19:19:00+00:00,267.5798,13.57,11.7,47.84626,-54.09684
2022-09-08 19:29:00+00:00,274.4548,13.77,11.7,47.84626,-54.09684
2022-09-08 19:39:00+00:00,286.1265,13.69,11.7,47.84626,-54.09684
2022-09-08 19:49:00+00:00,296.6497,13.7,11.7,47.84626,-54.09684
2022-09-08 19:59:00+00:00,303.343,13.8,11.7,47.84626,-54.09684
2022-09-08 20:09:00+00:00,308.7365,13.8,11.7,47.84626,-54.09684
2022-09-08 20:19:00+00:00,316.1747,13.8,11.7,47.84626,-54.09684
2022-09-08 20:29:00+00:00,325.183,13.8,11.7,47.84626,-54.09684
2022-09-08 20:39:00+00:00,330.548,13.86,11.7,47.84626,-54.09684
2022-09-08 20:49:00+00:00,335.4479,13.9,11.7,47.84626,-54.09684
2022-09-08 20:59:00+00:00,338.9596,13.9,11.7,47.84626,-54.09684
2022-09-08 21:09:00+00:00,343.6713,13.96,11.7,47.84626,-54.09684
2022-09-08 21:19:00+00:00,350.1646,13.9,11.61,47.84626,-54.09684
2022-09-08 21:29:00+00:00,358.0463,13.8,11.61,47.84626,-54.09684
2022-09-08 21:39:00+00:00,364.4479,13.6,11.61,47.84626,-54.09684
2022-09-08 21:49:00+00:00,369.1313,13.49,11.61,47.84626,-54.09684
2022-09-08 21:59:00+00:00,372.793,13.3,11.61,47.84626,-54.09684
2022-09-08 22:09:00+00:00,374.1879,13.35,11.61,47.84626,-54.09684
2022-09-08 22:19:00+00:00,371.25300000000004,13.55,11.61,47.84626,-54.09684
2022-09-08 22:29:00+00:00,371.0495,13.63,11.61,47.84626,-54.09684
2022-09-08 22:39:00+00:00,372.9164,13.94,11.61,47.84626,-54.09684
2022-09-08 22:49:00+00:00,372.4978,14.1,11.61,47.84626,-54.09684
2022-09-08 22:59:00+00:00,370.7645,14.19,11.61,47.84626,-54.09684
2022-09-08 23:09:00+00:00,370.9629,14.24,11.61,47.84626,-54.09684
2022-09-08 23:19:01+00:00,367.0763,14.3,11.61,47.84626,-54.09684
2022-09-08 23:29:01+00:00,362.1547,14.3,11.61,47.84626,-54.09684
2022-09-08 23:39:01+00:00,358.2311,14.3,11.61,47.84626,-54.09684
2022-09-08 23:49:01+00:00,357.5763,14.1,11.61,47.84626,-54.09684
2022-09-08 23:59:01+00:00,353.4296,13.7,11.61,47.84626,-54.09684
